Torna al catalogo

DELTA 1 DEB

AttivoSSO
NORAD 13535·DEBRIS·🇺🇸 United States

Lanciato Jul 29, 1976 da Vandenberg Space Force Base

Loading…

Prossimi Passaggi (prossime 24 ore)

TLE

AggiornatoSource: Space-Track

Epoca: Sep 14, 2026, 09:35 UTC

1 13535U 76077EH  26257.39964329 -.00000033  00000-0  76218-4 0  9996
2 13535 101.7785 226.3511 0023647  99.6412  55.1425 12.39108150159840

Traccia DELTA 1 DEB in tempo reale con AllMySat

Download on the App Store